Simultaneous Nadir Overpasses (SNOs) Predictions

Prediction of SNOs between GOES-15 and METOP-B Satellite Orbit:

Table of predicted SNOs for the next 14.0 days since TLE Epoch: 3/27/2020
Index Date Time (GOES-15) GOES-15 Lat,Lon METOP-B Lat,Lon Distance(km) Time Diff (sec)
1 03/28/2020 05:56:33 -0.26,-127.98 -0.02,-126.83 130.27 80
2 03/29/2020 18:18:05 0.28,-127.98 1.04,-131.39 388.86 80
3 03/30/2020 17:54:46 0.26,-127.95 -0.06,-126.40 176.11 80
4 04/01/2020 06:16:26 -0.27,-127.84 -0.97,-130.99 359.18 80
5 04/02/2020 05:53:07 -0.26,-127.80 0.12,-125.99 205.30 80
6 04/03/2020 18:14:39 0.27,-127.79 0.89,-130.56 315.23 80
7 04/04/2020 17:51:19 0.26,-127.75 -0.21,-125.56 249.14 80
8 04/06/2020 06:13:00 -0.28,-127.63 -0.82,-130.15 286.94 80
9 04/07/2020 05:49:40 -0.27,-127.59 0.27,-125.16 277.22 80
10 04/08/2020 18:11:13 0.28,-127.58 0.74,-129.72 243.98 80
11 04/09/2020 17:47:53 0.27,-127.53 -0.36,-124.72 320.02 80




NCC Satellite Simultaneous Nadir Overpasses (SNOs) Prediction Service
